Location: Peach Mountain Observatory
(42.3967°N, 83.9367°W)
Time: 06:02:55
(UTC-05:00)

Explorer 7 - Pass Details

Date: 24 January 2020
Orbit: 485 x 679 km, 50.3° (Epoch: 23 February)

Event Time Altitude Azimuth Distance (km) Brightness Sun altitude
Exits shadow 05:02:50 19° 111° (ESE) 1,296 9.3 -32.0°
Drops below altitude 10° 05:04:08 10° 114° (ESE) 1,801 10.1 -31.8°
Sets 05:06:26 0° 116° (ESE) 2,726 11.2 -31.4°
